Regional Weather Roundup
Issued by NWS

Home | Current Version | Previous Version | Graphics & Text | Print | Product List | Glossary On
Versions: 1 2 3 4 5 6 7 8 9 10 11 12 13 14 15 16 17 18 19 20 21 22 23 24 25 26 27 28 29 30 31 32 33 34 35 36 37 38 39 40 41 42 43 44 45 46 47 48 49 50
267
ASUS44 KLIX 271001
RWRLA
LOUISIANA WEATHER ROUNDUP
NATIONAL WEATHER SERVICE NEW ORLEANS LA
400 AM CST FRI FEB 27 2015

NOTE: "FAIR" INDICATES FEW OR NO CLOUDS BELOW 12,000 FEET WITH NO
      SIGNIFICANT WEATHER AND/OR OBSTRUCTIONS TO VISIBILITY.
      SKY/WX - SKY CONDITION AND SIGNIFICANT WEATHER.
      TMP - AIR TEMPERATURE.    DP   - DEWPOINT TEMPERATURE.
      RH  - RELATIVE HUMIDITY.  PRES - PRESSURE.
      HX  - HEAT INDEX.         WCI  - WIND CHILL INDEX.

*  THESE STATIONS ARE NOT NWS OR FAA STATIONS AND ARE NOT UNDER
   NWS QUALITY CONTROL.

LAZ040-048-061>063-065-066-069-271100-
SOUTHEAST LOUISIANA

CITY           SKY/WX    TMP DP  RH WIND       PRES   REMARKS
N.O. AUDUBON     N/A     37  32  82 MISG        N/A
N.O. INTL ARPT CLOUDY    37  30  75 MISG      30.33S
N.O. LAKEFRONT MOCLDY    39  32  76 NE17      30.34S WCI  30
SLIDELL        CLEAR     32  29  88 NE7       30.33S WCI  26
BATON ROUGE    CLOUDY    36  29  75 N8        30.34R WCI  30
BOOTHVILLE     CLOUDY    44  36  73 N10G21    30.30R
BELLE CHASSE   PTCLDY    37  29  72 NE12      30.33R WCI  29
BOGALUSA*        N/A     32  29  90 CALM      30.35S
GALLIANO*      PTSUNNY   40  34  79 N13G18    30.31S WCI  32
NEW ROADS*     NOT AVBL
GONZALES*      NOT AVBL
HAMMOND*       NOT AVBL
HOUMA*         CLOUDY    36  32  84 N12       30.32R WCI  28
PORT FOURCHON* PTSUNNY   41  36  81 NE21G28   30.32S

$$

LAZ041-044-053-054-271100-
SOUTHWEST LOUISIANA

CITY           SKY/WX    TMP DP  RH WIND       PRES   REMARKS
LAKE CHARLES   CLOUDY    39  32  76 NE13      30.33R WCI  31
LAFAYETTE      CLOUDY    36  30  79 NE12      30.33R WCI  28
PATTERSON      CLEAR     36  30  80 NE12      30.31S WCI  27
SALT POINT       N/A     36  31  82 N5        30.30R WCI  32
NEW IBERIA     CLOUDY    37  30  75 NE15      30.32R WCI  28
CHENAULT AIRPK NOT AVBL

$$

LAZ027-028-271100-
CENTRAL LOUISIANA

CITY           SKY/WX    TMP DP  RH WIND       PRES   REMARKS
FORT POLK      MOCLDY    32  28  84 N8        30.36R WCI  25
ALEXANDRIA INT MOCLDY    33  27  78 N6        30.38R WCI  28
ALEXANDRIA     CLEAR     33  25  72 VRB5      30.38R WCI  29

$$

LAZ001-002-271100-
NORTHWEST LOUISIANA

CITY           SKY/WX    TMP DP  RH WIND       PRES   REMARKS
SHREVEPORT     PTCLDY    31  23  72 NE10      30.43R WCI  22
BARKSDALE AFB  MOCLDY    29  22  76 E9        30.43S WCI  20
DTN SHREVEPORT MOCLDY    29  21  72 NE6       30.43F WCI  23

$$

LAZ014-016-271100-
NORTHEAST LOUISIANA

CITY           SKY/WX    TMP DP  RH WIND       PRES   REMARKS
MONROE         CLOUDY    29  23  78 N12       30.45R WCI  19
TALLULAH       CLOUDY    31  23  72 N17       30.43R WCI  19

$$




USA.gov is the U.S. government's official web portal to all federal, state and local government web resources and services.